This demonstration page uses our WeatherBlox Daily Observations layout. Learn more.

40.92945, -100.16068

Hourly Observations for January 25, 2017

Temp ( °F °C ) Dew Point ( °F °C ) Humidity (%) Winds ( mph kmh ) Pressure ( in mb ) Visibility ( mi km ) Precip ( " mm )
12:15 am 00:15 Cloudy 23 -5 18 -7.6 82 82 NW 23 37 29.91 1013 10 16.0934 0 0
12:35 am 00:35 Cloudy 23 -4.9 18 -7.6 82 82 NNW 22 35 29.91 1013 10 16.0934 0 0
12:55 am 00:55 Mostly Cloudy 23 -4.8 18 -7.7 80 80 NNW 20 31 29.91 1013 10 16.0934 0 0
1:15 am 01:15 Mostly Cloudy 23 -4.8 18 -7.9 79 79 NNW 20 31 29.91 1013 10 16.0934 0 0
1:35 am 01:35 Mostly Cloudy 23 -5 18 -7.9 80 80 NNW 22 35 29.91 1013 10 16.0934 0 0
1:55 am 01:55 Mostly Cloudy 23 -5.1 18 -8 80 80 NNW 21 33 29.91 1013 10 16.0934 0 0
2:15 am 02:15 Cloudy 23 -5.1 17 -8.2 79 79 NNW 21 33 29.91 1013 10 16.0934 0 0
2:35 am 02:35 Mostly Cloudy 22 -5.3 17 -8.3 80 80 NNW 20 31 29.94 1014 10 16.0934 0 0
2:55 am 02:55 Partly Cloudy 22 -5.3 17 -8.5 78 78 NNW 21 33 29.94 1014 10 16.0934 0 0
3:15 am 03:15 Mostly Cloudy 22 -5.3 17 -8.3 80 80 NNW 21 33 29.94 1014 10 16.0934 0 0
3:35 am 03:35 Cloudy 23 -5 17 -8.5 77 77 NNW 22 35 29.94 1014 10 16.0934 0 0
3:55 am 03:55 Cloudy 23 -5.1 17 -8.5 77 77 NW 25 41 29.94 1014 10 16.0934 0 0
4:15 am 04:15 Cloudy 23 -5.1 17 -8.5 77 77 NNW 25 41 29.97 1015 10 16.0934 0 0
4:35 am 04:35 Cloudy 23 -5.1 17 -8.5 77 77 NNW 22 35 29.97 1015 10 16.0934 0 0
4:55 am 04:55 Cloudy 23 -5.2 17 -8.6 77 77 NW 23 37 29.97 1015 10 16.0934 0 0
5:15 am 05:15 Cloudy 22 -5.3 16 -8.7 77 77 NW 23 37 29.97 1015 10 16.0934 0 0
5:35 am 05:35 Mostly Cloudy 22 -5.5 16 -9 77 77 NW 17 28 29.97 1015 10 16.0934 0 0
5:55 am 05:55 Partly Cloudy 22 -5.6 16 -9 77 77 NW 21 33 29.97 1015 10 16.0934 0 0
6:15 am 06:15 Mostly Cloudy 22 -5.5 16 -9 77 77 NW 21 33 29.97 1015 10 16.0934 0 0
6:35 am 06:35 Cloudy 22 -5.5 16 -9 77 77 NW 20 31 30 1016 10 16.0934 0 0
6:55 am 06:55 Cloudy 22 -5.5 16 -9 77 77 NW 21 33 30 1016 10 16.0934 0 0
7:15 am 07:15 Cloudy 22 -5.5 16 -9 77 77 NW 16 26 30.03 1017 10 16.0934 0 0
7:35 am 07:35 Cloudy 22 -5.5 16 -9 77 77 NW 14 22 30.03 1017 10 16.0934 0 0
7:55 am 07:55 Cloudy 22 -5.6 16 -9.1 77 77 NW 18 30 30.03 1017 10 16.0934 0 0
8:15 am 08:15 Cloudy 22 -5.8 15 -9.2 77 77 NW 12 19 30.03 1017 10 16.0934 0 0
8:35 am 08:35 Cloudy 21 -6 15 -9.3 78 78 NW 13 20 30.09 1019 10 16.0934 0 0
8:55 am 08:55 Cloudy 22 -5.7 16 -9 78 78 NW 16 26 30.06 1018 10 16.0934 0 0
9:15 am 09:15 Cloudy 22 -5.4 16 -8.9 77 77 NW 16 26 30.06 1018 10 16.0934 0 0
9:35 am 09:35 Mostly Cloudy 23 -4.9 17 -8.6 76 76 NNW 18 30 30.06 1018 10 16.0934 0 0
9:55 am 09:55 Mostly Cloudy 23 -4.8 16 -8.7 74 74 NNW 21 33 30.09 1019 10 16.0934 0 0
10:15 am 10:15 Cloudy 24 -4.7 17 -8.6 74 74 NNW 20 31 30.09 1019 10 16.0934 0 0
10:35 am 10:35 Cloudy 24 -4.5 17 -8.5 74 74 NNW 20 31 30.09 1019 10 16.0934 0 0
10:55 am 10:55 Cloudy 25 -4 17 -8.5 71 71 NW 23 37 30.12 1020 10 16.0934 0 0
11:15 am 11:15 Cloudy 25 -4 16 -8.7 70 70 NNW 21 33 30.12 1020 10 16.0934 0 0
11:35 am 11:35 Cloudy 25 -3.8 17 -8.5 70 70 NNW 21 33 30.12 1020 10 16.0934 0 0
11:55 am 11:55 Cloudy 25 -3.8 17 -8.1 72 72 NNW 20 31 30.12 1020 7 11.26538 0 0
12:15 pm 12:15 Cloudy with Haze 25 -4 18 -7.7 76 76 NNW 20 31 30.12 1020 3 4.82802 0 0
12:35 pm 12:35 Cloudy with Haze 25 -4 19 -7.2 79 79 NNW 23 37 30.12 1020 1.75 2.816345 0 0
12:55 pm 12:55 Cloudy with Haze 26 -3.4 19 -7.2 75 75 NNW 21 33 30.12 1020 5 8.0467 0 0
1:15 pm 13:15 Cloudy 26 -3.3 19 -7.5 73 73 NNW 21 33 30.12 1020 10 16.0934 0 0
1:35 pm 13:35 Cloudy 26 -3.5 18 -7.8 72 72 NNW 18 30 30.09 1019 10 16.0934 0 0
1:55 pm 13:55 Cloudy with Haze 25 -3.7 18 -7.6 75 75 NW 23 37 30.12 1020 5 8.0467 0 0
2:15 pm 14:15 Cloudy with Haze 25 -4.1 19 -7.2 79 79 NNW 16 26 30.12 1020 2 3.21868 0 0
2:55 pm 14:55 Cloudy with Haze 25 -4 19 -7.5 77 77 NNW 23 37 30.12 1020 3 4.82802 0 0
3:15 pm 15:15 Cloudy with Haze 25 -4 19 -7.5 77 77 NNW 18 30 30.12 1020 3 4.82802 0 0
3:35 pm 15:35 Cloudy 25 -3.8 17 -8.1 72 72 NNW 21 33 30.12 1020 10 16.0934 0 0
3:55 pm 15:55 Cloudy 26 -3.5 17 -8.4 69 69 NNW 23 37 30.15 1021 10 16.0934 0 0
4:15 pm 16:15 Cloudy 25 -3.8 17 -8.1 72 72 NNW 15 24 30.15 1021 10 16.0934 0 0
4:35 pm 16:35 Cloudy 25 -3.7 18 -7.7 74 74 NNW 17 28 30.15 1021 10 16.0934 0 0
4:55 pm 16:55 Cloudy with Light Snow 25 -4 19 -7.5 77 77 NW 15 24 30.15 1021 7 11.26538 0 0
5:15 pm 17:15 Cloudy with Light Snow 23 -4.8 19 -7.4 82 82 NW 16 26 30.18 1022 3 4.82802 0 0
5:35 pm 17:35 Partly Cloudy 23 -5 16 -8.9 74 74 NNW 17 28 30.21 1023 10 16.0934 0 0
5:55 pm 17:55 Partly Cloudy 23 -5.1 16 -9.1 74 74 NW 12 19 30.21 1023 10 16.0934 0 0
6:15 pm 18:15 Partly Cloudy 23 -5.2 16 -9 75 75 NW 12 19 30.21 1023 10 16.0934 0 0
6:35 pm 18:35 Clear 23 -5.2 15 -9.2 74 74 NW 13 20 30.21 1023 10 16.0934 0 0
6:55 pm 18:55 Mostly Cloudy 22 -5.3 16 -9.1 75 75 NW 13 20 30.21 1023 10 16.0934 0 0
7:15 pm 19:15 Cloudy 23 -5.2 16 -9.1 74 74 NW 15 24 30.21 1023 10 16.0934 0 0
7:35 pm 19:35 Cloudy 22 -5.5 16 -9 77 77 NW 13 20 30.21 1023 10 16.0934 0 0
7:55 pm 19:55 Mostly Cloudy 21 -6 16 -9 80 80 WNW 9 15 30.21 1023 10 16.0934 0 0
8:15 pm 20:15 Mostly Cloudy 22 -5.8 16 -8.7 80 80 WNW 10 17 30.21 1023 10 16.0934 0 0
8:35 pm 20:35 Cloudy 22 -5.8 16 -9 78 78 WNW 10 17 30.21 1023 10 16.0934 0 0
8:55 pm 20:55 Mostly Cloudy 21 -6 15 -9.5 77 77 NW 9 15 30.21 1023 10 16.0934 0 0
9:15 pm 21:15 Partly Cloudy 21 -6 15 -9.5 77 77 NW 13 20 30.21 1023 10 16.0934 0 0
9:35 pm 21:35 Mostly Cloudy 22 -5.8 15 -9.5 75 75 NW 15 24 30.21 1023 10 16.0934 0 0
9:55 pm 21:55 Cloudy 22 -5.5 15 -9.5 74 74 NNW 17 28 30.21 1023 10 16.0934 0 0
10:15 pm 22:15 Cloudy 22 -5.7 15 -9.5 75 75 NW 10 17 30.21 1023 10 16.0934 0 0
10:35 pm 22:35 Cloudy 22 -5.8 15 -9.5 75 75 NW 9 15 30.21 1023 10 16.0934 0 0
10:55 pm 22:55 Cloudy 22 -5.6 15 -9.2 76 76 NW 13 20 30.21 1023 10 16.0934 0 0
11:15 pm 23:15 Cloudy 22 -5.5 15 -9.3 75 75 NW 15 24 30.24 1024 10 16.0934 0 0
11:35 pm 23:35 Cloudy 22 -5.5 15 -9.4 74 74 WNW 13 20 30.24 1024 10 16.0934 0 0
11:55 pm 23:55 Cloudy 22 -5.6 15 -9.5 74 74 NW 14 22 30.24 1024 10 16.0934 0 0

Powered by AerisWeather